TimeCDT,TemperatureF,Dew PointF,Humidity,Sea Level PressureIn,VisibilityMPH,Wind Direction,Wind SpeedMPH,Gust SpeedMPH,PrecipitationIn,Events,Conditions,WindDirDegrees,DateUTC
12:53 AM,63.0,60.1,90,30.04,10.0,Calm,Calm,-,N/A,,Clear,0,2013-06-15 05:53:00
1:53 AM,62.1,60.1,93,30.04,10.0,Calm,Calm,-,N/A,,Clear,0,2013-06-15 06:53:00
2:53 AM,64.0,62.1,93,30.02,10.0,Calm,Calm,-,N/A,,Clear,0,2013-06-15 07:53:00
3:53 AM,63.0,61.0,93,30.01,10.0,SSE,4.6,-,N/A,,Scattered Clouds,160,2013-06-15 08:53:00
4:53 AM,62.1,59.0,90,30.03,10.0,Calm,Calm,-,N/A,,Clear,0,2013-06-15 09:53:00
5:53 AM,61.0,59.0,93,30.05,10.0,Calm,Calm,-,N/A,,Clear,0,2013-06-15 10:53:00
6:53 AM,64.0,62.1,93,30.06,10.0,Calm,Calm,-,N/A,,Clear,0,2013-06-15 11:53:00
7:53 AM,70.0,63.0,78,30.08,10.0,Calm,Calm,-,N/A,,Clear,0,2013-06-15 12:53:00
8:53 AM,75.9,62.1,62,30.09,10.0,Calm,Calm,-,N/A,,Clear,0,2013-06-15 13:53:00
9:53 AM,80.1,61.0,52,30.06,10.0,SSE,3.5,-,N/A,,Clear,160,2013-06-15 14:53:00
10:53 AM,82.0,62.1,51,30.03,10.0,SE,9.2,-,N/A,,Clear,140,2013-06-15 15:53:00
11:53 AM,82.9,60.1,46,30.03,10.0,South,5.8,-,N/A,,Clear,180,2013-06-15 16:53:00
12:53 PM,84.9,61.0,44,30.03,10.0,Variable,4.6,-,N/A,,Clear,0,2013-06-15 17:53:00
1:53 PM,84.9,60.1,43,30.01,10.0,Variable,6.9,-,N/A,,Clear,0,2013-06-15 18:53:00
2:53 PM,88.0,60.1,39,29.99,10.0,South,8.1,-,N/A,,Clear,170,2013-06-15 19:53:00
3:53 PM,87.1,62.1,43,29.99,10.0,SSW,6.9,-,N/A,,Clear,200,2013-06-15 20:53:00
4:53 PM,86.0,59.0,40,29.97,10.0,Calm,Calm,-,N/A,,Clear,0,2013-06-15 21:53:00
5:53 PM,84.0,59.0,43,29.98,10.0,Calm,Calm,-,N/A,,Clear,0,2013-06-15 22:53:00
6:53 PM,82.9,63.0,51,29.99,10.0,Calm,Calm,-,N/A,,Clear,0,2013-06-15 23:53:00
7:53 PM,80.1,64.9,60,29.96,10.0,SSE,3.5,-,N/A,,Clear,160,2013-06-16 00:53:00
8:53 PM,78.1,64.9,64,29.98,10.0,South,3.5,-,N/A,,Clear,180,2013-06-16 01:53:00
9:53 PM,75.9,64.9,69,29.99,10.0,South,4.6,-,N/A,,Clear,180,2013-06-16 02:53:00
10:53 PM,75.9,64.0,67,29.99,10.0,South,4.6,-,N/A,,Clear,180,2013-06-16 03:53:00
11:53 PM,75.9,63.0,64,29.99,10.0,Calm,Calm,-,N/A,,Clear,0,2013-06-16 04:53:00